Regional Weather Roundup
Issued by NWS

Home | Current Version | Previous Version | Text Only | Print | Product List | Glossary On
Versions: 1 2 3 4 5 6 7 8 9 10 11 12 13 14 15 16 17 18 19 20 21 22 23 24 25 26
000
ASUS45 KTFX 241310
RWRMT
MONTANA REGIONAL WEATHER ROUNDUP
NATIONAL WEATHER SERVICE GREAT FALLS MT
700 AM MDT TUE APR 24 2018

NOTE: "FAIR" INDICATES FEW OR NO CLOUDS BELOW 12000 FEET WITH NO
SIGNIFICANT WEATHER AND/OR OBSTRUCTIONS TO VISIBILITY.

MTZ001>007-043-241400-
WEST OF THE DIVIDE

CITY           SKY/WX    TMP DP  RH WIND       PRES   REMARKS
KALISPELL      FAIR      26  23  88 CALM      30.48R
MISSOULA       FAIR      29  23  78 CALM      30.49R
BUTTE          FAIR      22  17  81 SE6       30.49R WCI  14
MULLAN PASS    FAIR      31  21  66 SE15G24   30.39S WCI  20
ANACONDA         N/A     25  19  80 SW6       30.49S WCI  18
DEER LODGE       N/A     21  19  93 CALM      30.52R
HAMILTON         N/A     28  23  80 MISG      30.50R
RONAN            N/A     27  23  86 N6        30.48  WCI  20
$$

MTZ008-052>055-241400-
SOUTHWEST MONTANA

CITY           SKY/WX    TMP DP  RH WIND       PRES   REMARKS
BOZEMAN        FAIR      26  24  92 CALM      30.51R
DILLON         FAIR      26  25  96 S5        30.46R
ENNIS          CLEAR     23  21  93 E6        30.49S WCI  16
W YELLOWSTONE  FAIR      19  18  93 CALM      30.42S
THREE FORKS      N/A     26  24  92 CALM      30.44R VSB 0
$$

MTZ009-010-012-014-046-048-049-054-241400-
EAST SLOPES AND CENTRAL MONTANA

CITY           SKY/WX    TMP DP  RH WIND       PRES   REMARKS
CUT BANK       FAIR      29  20  69 CALM      30.41S
GREAT FALLS    FAIR      32  26  78 S12       30.46S WCI  23
HELENA         FAIR      28  25  88 CALM      30.51R
CHOTEAU          N/A     30  21  69 SW5       30.45S
WHITE SULPHUR  FOG       23  21  93 SE6       30.49R VSB 1/2 WCI  16
$$

MTZ011-013-016-021-045-047-050-051-241400-
NORTH CENTRAL MONTANA

CITY           SKY/WX    TMP DP  RH WIND       PRES   REMARKS
HAVRE          FAIR      31  26  82 SW8       30.47R WCI  23
LEWISTOWN      FAIR      27  24  89 SE8       30.48R WCI  19
N BAR RANCH    FAIR      30  21  69 W8        30.50S WCI  23
CHINOOK          N/A     34  28  80 CALM      30.48
$$

MTZ017>020-022>027-061-062-241400-
NORTHEAST MONTANA

CITY           SKY/WX    TMP DP  RH WIND       PRES   REMARKS
GLASGOW        FAIR      34  27  75 NW3       30.47R
GLENDIVE       FAIR      36  30  79 S3        30.50R
JORDAN           N/A     30  28  92 CALM      30.47R
MALTA          CLEAR     32  28  86 CALM      30.46S
SIDNEY         FAIR      29  26  89 CALM      30.50R
WOLF POINT     FAIR      27  23  85 CALM      30.50R
PLENTYWOOD       N/A     36  27  69 CALM      30.47R
POPLAR           N/A     27  23  86 CALM      30.50R
$$

MTZ028>42-056>058-241400-
SOUTHCENTRAL AND SOUTHEAST MONTANA

CITY           SKY/WX    TMP DP  RH WIND       PRES   REMARKS
BAKER          CLOUDY    32  32 100 NW6       30.49R FOG     WCI  26
BILLINGS       FAIR      33  33 100 SW10      30.51R WCI  25
LIVINGSTON     CLOUDY    30  27  88 NW7       30.50R WCI  23
MILES CITY     FAIR      34  33  96 SW6       30.50R WCI  29
BIG TIMBER     CLEAR     25  25 100 W9        30.52R WCI  15
FORSYTH          N/A     36  36 100 W3        30.51S
$$

REGIONAL REPORTS...DAKOTAS

CITY           SKY/WX    TMP DP  RH WIND       PRES   REMARKS
WILLISTON      FAIR      31  25  78 CALM      30.48R
MINOT          FAIR      36  25  64 W3        30.44R
DICKINSON      FAIR      33  25  72 NW7       30.44R WCI  27
BEACH          FAIR      30  30 100 CALM      30.51R
CROSBY         FAIR      32  30  93 CALM      30.47R
TIOGA          FAIR      30  32 100 W5        30.47R
WATFORD CITY   FAIR      30  28  93 CALM      30.48R
BISMARCK       FAIR      40  31  70 N12       30.41R
GRAND FORKS    PTSUNNY   37  33  85 N16       30.38R WCI  28
FARGO          LGT RAIN  42  39  89 N6        30.34R
BUFFALO SD       N/A     36  32  85 NW17      30.39R WCI  26
RAPID CITY     LGT SNOW  34  31  88 N23G30    30.43R FOG     WCI  22
$$

REGIONAL REPORTS...WYOMING/IDAHO/WASHINGTON

CITY           SKY/WX    TMP DP  RH WIND       PRES   REMARKS
GILLETTE       CLOUDY    32  30  92 NW7       30.48R WCI  26
SHERIDAN       CLOUDY    34  32  92 S6        30.50R WCI  29
BUFFALO WY     CLOUDY    33  27  78 NW6       30.50R WCI  28
CODY           MOCLDY    31  24  75 CALM      30.50R
YELLOWSTONE LA   N/A     19  13  77 NE5       30.44R
IDAHO FALLS    FAIR      32  27  81 N8        30.39R WCI  25
SALMON         FAIR      27  24  89 CALM      30.48R
BOISE          FAIR      44  34  67 SE6       30.34R
SPOKANE        FAIR      42  29  59 E10       30.39S
$$

REGIONAL REPORTS...ALBERTA

CITY           SKY/WX    TMP DP  RH WIND       PRES   REMARKS
CALGARY        PTCLDY    34  19  55 SW5       30.29S
CARDSTON         N/A     39  18  41 SW14G20     N/A  WCI  31
EDMONTON       CLEAR     37  23  56 SW5       30.21S
FORT MCMURRAY  CLEAR     43  25  49 SW8       30.03F
HIGH LEVEL     CLOUDY    37  25  60 SE2       29.90S
LETHBRIDGE     CLEAR     37  21  52 S14       30.34S WCI  29
LLOYDMINSTER   PTCLDY    37  28  70 SW12      30.24S WCI  30
MEDICINE HAT   PTCLDY    36  27  69 SW7       30.37S WCI  30
MILK RIVER       N/A     34  25  69 S6          N/A  WCI  29
PEACE RIVER    MOCLDY    37  25  60 SW7       30.09F
PINCHER CREEK  CLEAR     37  21  52 NW12G17   30.35S WCI  30
WATERTON GATE    N/A     43  16  33 SW24G36     N/A
$$

REGIONAL REPORTS...SASKATCHEWAN

CITY           SKY/WX    TMP DP  RH WIND       PRES   REMARKS
CORONACH         N/A     25  23  93 CALM        N/A
CYPRESS HILLS    N/A     36  19  51 S7          N/A  WCI  30
ESTEVAN        SUNNY     32  27  80 W5        30.46R
MOOSE JAW        N/A     37  27  65 S3          N/A
PRINCE ALBERT  MOSUNNY   32  28  86 CALM      30.33F
REGINA         MOSUNNY   32  25  74 S3        30.43R
ROCKGLEN         N/A     34  25  69 W7          N/A  WCI  28
SASKATOON      PTCLDY    36  27  69 S9        30.36S WCI  29
SWIFT CURRENT  CLEAR     37  23  56 SW14      30.39S WCI  29
VAL MARIE        N/A     27  23  86 NE5         N/A
$$




USA.gov is the U.S. government's official web portal to all federal, state and local government web resources and services.